Location: Unspecified
(43.8044°N, 11.0278°E)
Time: 11:45:20
(UTC+02:00)

CZ-3 Stage 3 - Visible Passes

Search period start: 31 March 2015 00:00
Search period end: 10 April 2015 00:00
Orbit: 423 x 34806 km, 31.0° (Epoch: 30 March)

Date Brightness Start Highest point End Pass type
(mag) Time Alt. Az. Time Alt. Az. Time Alt. Az.
31 Mar 7.1 15:19:32 10° WSW 00:02:09 27° WSW 00:22:34 13° SSW visible
01 Apr 7.0 11:33:36 10° SSW 19:49:59 68° SSW 20:54:52 10° SE visible
03 Apr 7.1 15:14:50 10° WSW 23:56:19 25° WSW 00:18:22 10° SSW visible
04 Apr 7.0 11:28:12 10° SSW 19:45:36 67° SSW 20:49:52 10° SE visible
06 Apr 7.1 15:10:06 10° WSW 23:50:24 24° WSW 00:12:43 10° SW visible
07 Apr 7.0 11:22:49 10° SSW 19:41:00 66° SSW 20:44:48 10° SE visible
